This demonstration page uses our WeatherBlox Daily Observations layout. Learn more.

Left ArrowRight Arrow

41.86663, -103.66717

Hourly Observations for August 19, 2022

Temp ( °F °C ) Dew Point ( °F °C ) Humidity (%) Winds ( mph kmh ) Pressure ( in mb ) Visibility ( mi km ) Precip ( " mm )
12:53 am 00:53 Mostly Clear 64 17.8 54 12.2 70 70 NNE 3 6 29.94 1014 10 16 0.00 0.00
1:53 am 01:53 Partly Cloudy 64 17.8 54 12.2 70 70 Calm 29.94 1014 10 16 0.00 0.00
2:53 am 02:53 Clear 62 16.7 52 11.1 70 70 N 7 11 29.93 1014 10 16 0.00 0.00
3:53 am 03:53 Clear 61 16.1 51 10.6 70 70 NNE 10 17 29.93 1013 10 16 0.00 0.00
4:53 am 04:53 Mostly Clear 61 16.1 50 10 67 67 N 7 11 29.93 1013 10 16 0.00 0.00
5:53 am 05:53 Mostly Clear 61 16.1 49 9.4 64 64 N 6 9 29.94 1014 10 16 0.00 0.00
6:53 am 06:53 Cloudy 63 17.2 50 10 63 63 NNE 12 19 29.96 1015 10 16 0.00 0.00
7:53 am 07:53 Mostly Sunny 68 20 51 10.6 55 55 N 5 7 29.99 1016 10 16 0.00 0.00
8:53 am 08:53 Mostly Sunny 73 22.8 52 11.1 48 48 VRB 7 11 29.99 1016 10 16 0.00 0.00
9:53 am 09:53 Sunny 77 25 53 11.7 43 43 NE 10 17 29.99 1016 10 16 0.00 0.00
10:53 am 10:53 Sunny 80 26.7 50 10 35 35 NE 10 17 30.00 1016 10 16 0.00 0.00
11:53 am 11:53 Partly Cloudy 81 27.2 48 8.9 32 32 N 8 13 29.98 1015 10 16 0.00 0.00
12:53 pm 12:53 Mostly Sunny 82 27.8 48 8.9 31 31 N 13 20 29.97 1015 10 16 0.00 0.00
1:53 pm 13:53 Mostly Sunny 83 28.3 48 8.9 30 30 NW 7 11 29.95 1014 10 16 0.00 0.00
2:53 pm 14:53 Sunny 82 27.8 46 7.8 28 28 N 10 17 29.94 1014 10 16 0.00 0.00
3:53 pm 15:53 Mostly Sunny 85 29.4 43 6.1 23 23 NNW 7 11 29.93 1013 10 16 0.00 0.00
4:53 pm 16:53 Mostly Sunny 85 29.4 42 5.6 22 22 NNE 6 9 29.92 1013 10 16 0.00 0.00
5:53 pm 17:53 Sunny 82 27.8 43 6.1 25 25 E 12 19 29.92 1013 10 16 0.00 0.00
6:53 pm 18:53 Sunny 78 25.6 46 7.8 32 32 E 9 15 29.93 1014 10 16 0.00 0.00
7:53 pm 19:53 Clear 69 20.6 48 8.9 47 47 E 7 11 29.96 1015 10 16 0.00 0.00
8:53 pm 20:53 Clear 65 18.3 48 8.9 54 54 ENE 9 15 29.98 1015 10 16 0.00 0.00
9:53 pm 21:53 Clear 64 17.8 47 8.3 54 54 E 5 7 30.00 1016 10 16 0.00 0.00
10:53 pm 22:53 Clear 63 17.2 47 8.3 56 56 ENE 6 9 30.01 1016 10 16 0.00 0.00
11:53 pm 23:53 Clear 61 16.1 46 7.8 58 58 VRB 3 6 30.01 1016 10 16 0.00 0.00

Powered by AerisWeather